Regional Weather Roundup
Issued by NWS

Home | Current Version | Previous Version | Text Only | Print | Product List | Glossary Off
Versions: 1 2 3 4 5 6 7 8 9 10 11 12 13 14 15 16 17 18 19 20 21 22 23 24 25 26 27 28 29 30 31 32 33 34 35 36 37 38 39 40 41 42 43 44 45 46 47 48 49 50

406
ASUS43 KIND 272009
RWRIN

WEATHER ROUNDUP FOR INDIANA
NATIONAL WEATHER SERVICE INDIANAPOLIS IN
400 PM EDT WED JUL 27 2016

NOTE: "FAIR" INDICATES FEW OR NO CLOUDS BELOW 12,000 FEET WITH NO
SIGNIFICANT WEATHER AND/OR OBSTRUCTIONS TO VISIBILITY.

* - STATION DOES NOT REPORT WEATHER SUCH AS PRECIPITATION OR FOG.

+ - STATION NOT QUALITY CONTROLLED BY THE NATIONAL WEATHER SERVICE.
    USE DATA WITH CAUTION...ESPECIALLY DEWPOINT AND RELATIVE
    HUMIDITY OBSERVATIONS.

INZ001>003-010>013-019-020-272100-
NORTHWEST INDIANA

CITY           SKY/WX    TMP DP  RH WIND       PRES   REMARKS
GARY /AIRPORT/ MOSUNNY   88  68  51 NE7       29.97F
KNOX *+        SUNNY     84  52  32 W3        29.98F
LA PORTE +     SUNNY     88  66  48 CALM      29.99F
MICHIGAN CITY+ SUNNY     82  64  54 N6        29.99S
MONTICELLO +   SUNNY     85  62  46 NW5       29.97F
RENSSELAER +   SUNNY     84  63  48 SW3       29.98F
VALPARAISO     MOSUNNY   87  66  49 MISG      29.98F

$$

LMZ046-743>745-272100-
SOUTHERN LAKE MICHIGAN

STATION/POSITION TIME  TEMP    WIND        PRES    WAVE
                       AIR SEA DIR/SP/G            HT
                 (UTC) (F)     (DEG/KT/KT) (MB)    (FT)
BURNS HARBOR     1900   80      60/  8/  8 1015.9F
MICHIGAN CITY    1900   78     360/  6/  6   N/A
5NW MICH CITY    2000   79 78   50/  6/  6   N/A     0

$$

INZ004-005-014>016-021>024-272100-
NORTH CENTRAL INDIANA

CITY           SKY/WX    TMP DP  RH WIND       PRES   REMARKS
ELKHART        MOSUNNY   88  66  48 W7        29.98F
GOSHEN         MOSUNNY   87  60  40 VRB5      29.97F
LOGANSPORT +   SUNNY     86  63  45 N5        29.98F
PERU/GRISSOM   SUNNY     86  64  46 W9        29.97F
ROCHESTER +    SUNNY     88  64  45 N3        29.98F
SOUTH BEND     MOSUNNY   87  67  51 NW5       29.98F
WARSAW +       SUNNY     86  63  45 NW5       29.98F

$$

INZ006>009-017-018-025>027-272100-
NORTHEAST INDIANA

CITY           SKY/WX    TMP DP  RH WIND       PRES   REMARKS
ANGOLA *+        N/A     88  64  45 VRB7      29.98F
AUBURN +       MOSUNNY   90  54  29 W7G17     29.98F
FORT WAYNE     MOSUNNY   88  60  38 SW8G17    29.98F
HUNTINGTON +   MOSUNNY   85  60  42 N5        29.98F

$$

INZ028-029-035-036-043>045-051>053-272100-
WEST CENTRAL INDIANA

CITY           SKY/WX    TMP DP  RH WIND       PRES   REMARKS
CRAWFORDSVL +  SUNNY     83  65  53 E3        30.00S
GREENCASTLE +  PTSUNNY   82  72  69 SE3       30.00F
LAFAYETTE      SUNNY     87  66  49 CALM      29.97F
TERRE HAUTE    CLOUDY    85  69  58 SE5       29.98F

$$

INZ030>032-037>040-046>048-054>057-064-065-272100-
CENTRAL INDIANA

CITY           SKY/WX    TMP DP  RH WIND       PRES   REMARKS
ANDERSON       MOSUNNY   86  64  48 W6        30.00
COLUMBUS       MOSUNNY   84  72  65 CALM      29.99F
FISHERS *+     SUNNY     88  68  51 N3        29.99F
INDIANAPOLIS   MOSUNNY   90  63  40 N7        29.99F
-EAGLE CREEK   SUNNY     89  65  44 NW6       29.98F
KOKOMO *+      SUNNY     88  63  42 N5        29.98F
MARION +       SUNNY     85  61  44 N5        29.99F
MT COMFORT *+  MOSUNNY   86  66  51 CALM      30.00F
SHELBYVILLE    SUNNY     88  67  49 VRB3      29.99F
ZIONSVILLE +   SUNNY     83  65  55 N3        30.01F

$$

INZ033-034-041-042-049-050-058-059-272100-
EAST CENTRAL INDIANA

CITY           SKY/WX    TMP DP  RH WIND       PRES   REMARKS
MUNCIE         SUNNY     88  61  40 VRB7      29.99F

$$

INZ060-061-067>069-081>083-085>088-272100-
SOUTHWEST INDIANA

CITY           SKY/WX    TMP DP  RH WIND       PRES   REMARKS
EVANSVILLE     CLOUDY    90  74  59 W6        29.94F HX  99
HUNTINGBURG *+ CLOUDY    79  73  83 CALM      29.97F THUNDER
WASHINGTON +   MOSUNNY   85  76  73 MISG      29.95F

$$

INZ062-063-066-070>080-084-089>092-272100-
SOUTH CENTRAL AND SOUTHEAST INDIANA

CITY           SKY/WX    TMP DP  RH WIND       PRES   REMARKS
BLOOMINGTON    CLOUDY    84  71  65 N3        29.99F
MADISON *+     CLOUDY    86  70  58 NW5       30.00F
NORTH VERNON + MOSUNNY   88  75  66 NW5       29.99F HX  97
SEYMOUR +      MOSUNNY   90  70  51 NW3       29.97F HX  95

$$





USA.gov is the U.S. government's official web portal to all federal, state and local government web resources and services.